Tracking 30166 objects as of 22-Jan-2025
HD Live streaming from Space Station
objects crossing your sky now

STARLINK-11464

Track STARLINK-11464 now!
10-day predictions
STARLINK-11464 is classified as:


NORAD ID: 62473
Int'l Code: 2024-254M
Perigee: 324.2 km
Apogee: 326.2 km
Inclination: 43.0 °
Period: 90.9 minutes
Semi major axis: 6696 km
RCS: Unknown
Launch date: December 31, 2024
Source: United States (US)
Launch site: AIR FORCE EASTERN TEST RANGE (AFETR)
Your satellite tracking list
Your tracking list is empty




NASA's NSSDC Master Catalog

Two Line Element Set (TLE):
1 62473U 24254M   25021.90773821  .00060316  00000-0  25659-3 0  9992
2 62473  42.9943 187.3020 0001537 274.1834  85.8863 15.84387630  4615
Source of the keplerian elements: AFSPC